Flag for Montserrat Weather past 2 weeks in Brades, Montserrat

Now
81 °F

Passing clouds.


Feels Like: 85 °F
Forecast: 78 / 83 °F
Wind: 10 mph from East

Location: Vc Bird International Antigua Airport

Current Time: May 25, 2015 at 12:18:32 AM

Latest Report: May 24, 2015 at 11:00 PM


Visibility: N/A

Pressure: 30.07 "Hg

Humidity: 74%

Dew point: 72 °F

Location of BradesLocation

Historic Weather in Brades — Graph

°F

Brades temperature yesterday

Maximum temperature yesterday: 84 °F (at 9:00 AM)
Minimum temperature yesterday: 79 °F (at 1:00 AM)
Average temperature yesterday: 82 °F

Past Weeks' High & Low Weather Summary

 TemperatureHumidityPressure
High88 °F (May 21, 12:00 PM)89% (May 18, 8:00 PM)30.12 "Hg (May 18, 8:00 PM)
Low77 °F (May 13, 6:00 AM)58% (May 13, 2:00 PM)29.95 "Hg (May 20, 3:00 AM)
Average81 °F72%30.04 "Hg
* Reported May 9 11:00 PM — May 24 11:00 PM, Brades, Weather by CustomWeather, © 2015

Note: Actual official high and low records may vary slightly from our data, if they occured in-between our weather recording intervals... More about our weather records

Advertising

Brades weather history for previous 24 hours

 ConditionsComfort  
Time TempWeatherWind HumidityBarometerVisibility
11:00 PM
Sun, May 24
81 °FPassing clouds.10 mph74%30.07 "HgN/A
10:00 PM81 °FPassing clouds.12 mph70%30.07 "HgN/A
9:00 PM81 °FPassing clouds.12 mph70%30.07 "HgN/A
8:00 PM81 °FPassing clouds.10 mph74%30.04 "HgN/A
7:00 PM81 °FPassing clouds.10 mph74%30.04 "HgN/A
6:00 PM81 °FScattered clouds.12 mph74%30.04 "HgN/A
5:00 PM82 °FScattered clouds.12 mph70%30.04 "HgN/A
4:00 PM84 °FBroken clouds.13 mph66%30.04 "HgN/A
3:00 PM84 °FScattered clouds.14 mph66%30.04 "HgN/A
2:00 PM84 °FScattered clouds.14 mph66%30.04 "HgN/A
1:00 PM84 °FScattered clouds.15 mph66%30.07 "HgN/A
12:00 PM84 °FPartly sunny.14 mph66%30.07 "HgN/A
11:00 AM84 °FScattered clouds.14 mph66%30.07 "HgN/A
10:00 AM84 °FPartly sunny.13 mph70%30.09 "HgN/A
9:00 AM84 °FScattered clouds.14 mph66%30.07 "HgN/A
8:00 AM82 °FScattered clouds.12 mph70%30.07 "HgN/A
7:00 AM81 °FScattered clouds.13 mph74%30.07 "HgN/A
6:00 AM81 °FPartly sunny.13 mph74%30.04 "HgN/A
5:00 AM79 °FPassing clouds.14 mph79%30.04 "HgN/A
4:00 AM79 °FPassing clouds.13 mph79%30.04 "HgN/A
3:00 AM79 °FPassing clouds.12 mph74%30.04 "HgN/A
2:00 AM79 °FPassing clouds.13 mph74%30.04 "HgN/A
1:00 AM79 °FPassing clouds.12 mph79%30.04 "HgN/A
12:00 AM81 °FPassing clouds.14 mph74%30.07 "HgN/A
Weather by CustomWeather, © 2015

See weather overviewHow to use our weather pages